Notices

What's New in latest Release from April 7th, 2021:

- Updated Glossary, including Speed of Maximum Gust, and Total Hourly Precipitation

- Updated national and regional climate services offices contacts and prices information

- Addition of station inventory lists for 1981-2010, 1971-2000, and 1961-1990 Normals.

If you haven't already, please take our survey and provide feedback about our website: https://eccc.sondage-survey.ca/f/LanguageSelection.aspx?s=442ca660-fcf1-47c0-95a9-59707d6fd709

Hourly Data Report for April 30, 2020

CLYDE RIVER A
NUNAVUT
Current Station Operator: NAVCAN

70°29'09.000" N
68°31'01.000" W
26.50 m
2400804
71090
YCY

Download Data

Hourly Data (April 2020)
Hourly Data Report for April 30, 2020
TIME
LST
Temp Definition
°C
Dew Point Definition
°C
Rel Hum Definition
%
Precip. Amount Definition
mm

Wind Dir Definition
10's deg

Wind Spd Definition
km/h
Visibility Definition
km
Stn Press Definition
kPa
Hmdx Definition


Wind Chill Definition


Weather Definition


00:00 -3.0 -8.0 69 0.0 20 13 16.1 101.01   -8 LegendNANA
01:00 -8.8 -11.0 84 0.0 LegendMM 9 16.1 100.97   -13 LegendNANA
02:00 -8.4 -10.6 84 0.0 2 9 16.1 100.95   -13 LegendNANA
03:00 -4.4 -7.5 79 0.0 LegendMM 4 16.1 100.97   -6 LegendNANA
04:00 -2.3 -5.9 76 0.0 25 11 16.1 100.90   -6 LegendNANA
05:00 -3.1 -6.6 77 0.0 28 8 16.1 100.89   -6 LegendNANA
06:00 -4.1 -6.3 85 0.0 30 8 16.1 100.85   -8 LegendNANA
07:00 -0.6 -5.0 72 0.0 LegendMM 5 16.1 100.81   -2 LegendNANA
08:00 -2.1 -5.7 76 0.0 36 11 16.1 100.79   -6 LegendNANA
09:00 -3.5 -6.0 83 0.0 33 11 16.1 100.74   -8 LegendNANA
10:00 -3.1 -5.4 84 0.0 35 13 16.1 100.72   -8 LegendNANA
11:00 -2.0 -4.7 82 0.0 3 11 16.1 100.69   -6 LegendNANA
12:00 -1.9 -4.5 83 0.0 2 9 16.1 100.68   -5 LegendNANA
13:00 -1.9 -3.5 89 0.0 35 13 16.1 100.68   -6 LegendNANA
14:00 -2.1 -4.5 84 0.0   0 16.1 100.68     LegendNANA
15:00 -2.4 -4.6 85 0.0 1 5 16.1 100.67   -4 LegendNANA
16:00 -3.4 -5.0 89 0.0 34 9 16.1 100.69   -7 LegendNANA
17:00 -3.5 -5.4 87 0.0 32 5 16.1 100.68   -6 LegendNANA
18:00 -3.9 -5.9 86 0.0 27 5 16.1 100.66   -6 LegendNANA
19:00 -4.7 -6.4 88 0.0 29 9 16.1 100.67   -9 LegendNANA
20:00 -4.4 -6.3 87 0.0 29 8 16.1 100.66   -8 LegendNANA
21:00 -5.9 -7.5 88 0.0   0 16.1 100.69     LegendNANA
22:00 -6.9 -7.5 96 0.0   0 16.1 100.69     LegendNANA
23:00 -8.8 -10.2 90 0.0 30 8 16.1 100.70   -13 LegendNANA

Notes on Data Quality.

Legend

  • E = Estimated
  • M = Missing
  • NA = Not Available*
  • [empty] = Indicates an unobserved value
Date modified: